CW7427 Weather Reports


Display with metric or nautical units.
time (UTC)temp
F
wind
direction
speed
MPH
gust
MPH
rain 1hr
in
rain 24hr
in
rain mn
in
humidity
%
barometer
mb
20260831132139 57 58 0.0 0.0 0.00 0.00 0.00 77 1026.3
20260831131638 58 58 0.0 0.0 0.00 0.00 0.00 77 1026.4
20260831131134 58 58 0.0 0.0 0.00 0.00 0.00 76 1026.4
20260831130631 58 58 0.0 0.0 0.00 0.00 0.00 76 1026.6
20260831130118 58 58 0.0 0.0 0.00 0.00 0.00 76 1026.6
20260831125604 58 58 0.0 0.0 0.00 0.00 0.00 74 1026.7
20260831125049 59 58 0.0 0.0 0.00 0.00 0.00 73 1026.7
20260831124535 59 58 0.0 0.0 0.00 0.00 0.00 73 1026.7
20260831124249 59 58 0.0 0.0 0.00 0.00 0.00 72 1026.7
20260831123725 59 58 0.0 0.0 0.00 0.00 0.00 72 1026.7
20260831122938 59 58 0.0 0.0 0.00 0.00 0.00 72 1026.7
20260831122437 59 58 0.0 0.0 0.00 0.00 0.00 72 1026.8
20260831121907 59 58 0.0 0.0 0.00 0.00 0.00 72 1026.8
20260831121408 59 58 0.0 0.0 0.00 0.00 0.00 72 1026.8
20260831120852 59 58 0.0 0.0 0.00 0.00 0.00 72 1026.9
20260831120339 59 58 0.0 0.0 0.00 0.00 0.00 72 1026.9
20260831115839 59 58 0.0 0.0 0.00 0.00 0.00 72 1027.0
20260831115330 59 58 0.0 0.0 0.00 0.00 0.00 72 1027.0
20260831114824 59 58 0.0 0.0 0.00 0.00 0.00 73 1027.0
20260831114529 59 58 0.0 0.0 0.00 0.00 0.00 73 1027.0
20260831113805 58 58 0.0 0.0 0.00 0.00 0.00 74 1027.0
20260831113301 58 58 0.0 0.0 0.00 0.00 0.00 75 1027.1
20260831113015 58 58 0.0 0.0 0.00 0.00 0.00 75 1027.2
20260831112510 58 58 0.0 0.0 0.00 0.00 0.00 77 1027.2
20260831111725 58 58 0.0 0.0 0.00 0.00 0.00 77 1027.3
20260831111219 58 58 0.0 0.0 0.00 0.00 0.00 77 1027.3
20260831110708 58 58 0.0 0.0 0.00 0.00 0.00 77 1027.2
20260831110209 58 58 0.0 0.0 0.00 0.00 0.00 77 1027.2
20260831105704 58 58 0.0 0.0 0.00 0.00 0.00 77 1027.3
20260831105144 59 58 0.0 0.0 0.00 0.00 0.00 77 1027.3
20260831104630 59 58 0.0 0.0 0.00 0.00 0.00 78 1027.2
20260831104121 59 58 0.0 0.0 0.00 0.00 0.00 77 1027.2
20260831103614 60 58 0.0 0.0 0.00 0.00 0.00 77 1027.2
20260831103101 60 58 0.0 0.0 0.00 0.00 0.00 76 1027.1
20260831102551 60 58 0.0 0.0 0.00 0.00 0.00 76 1027.1
20260831102041 60 58 0.0 1.0 0.00 0.00 0.00 77 1027.0
20260831101533 60 62 0.0 1.0 0.00 0.00 0.00 77 1027.0
20260831101021 61 25 0.0 2.0 0.00 0.00 0.00 77 1026.9
20260831100511 61 26 0.0 2.0 0.00 0.00 0.00 78 1026.9
20260831100005 61 25 0.0 2.0 0.00 0.00 0.00 78 1026.9
20260831095459 61 30 0.0 4.0 0.00 0.00 0.00 78 1026.8
20260831094949 61 0 0.0 4.0 0.00 0.00 0.00 78 1026.8
20260831094709 61 308 0.0 2.0 0.00 0.00 0.00 78 1026.8
20260831093933 61 298 0.0 6.0 0.00 0.00 0.00 78 1026.9
20260831093423 61 5 0.0 6.0 0.00 0.00 0.00 78 1026.9
20260831092914 61 325 0.0 4.0 0.00 0.00 0.00 78 1026.9
20260831092405 61 9 0.0 2.0 0.00 0.00 0.00 78 1026.9
20260831091904 61 11 0.0 2.0 0.00 0.00 0.00 78 1026.9
20260831091359 62 10 0.0 1.0 0.00 0.00 0.00 78 1027.0
20260831090859 62 10 0.0 2.0 0.00 0.00 0.00 78 1027.0
20260831090330 62 46 0.0 6.0 0.00 0.00 0.00 77 1026.9
20260831085820 62 42 0.0 4.0 0.00 0.00 0.00 77 1027.0
20260831085310 62 40 0.0 4.0 0.00 0.00 0.00 77 1027.0
20260831084809 62 46 0.0 4.0 0.00 0.00 0.00 76 1027.0
20260831084259 62 46 0.0 4.0 0.00 0.00 0.00 76 1027.0
20260831083749 63 66 0.0 4.0 0.00 0.00 0.00 75 1026.9
20260831083502 63 63 0.0 4.0 0.00 0.00 0.00 75 1026.9
20260831082733 63 63 0.0 4.0 0.00 0.00 0.00 74 1026.8
20260831082223 63 63 0.0 1.0 0.00 0.00 0.00 74 1026.8
20260831081723 63 63 0.0 2.0 0.00 0.00 0.00 74 1026.8
20260831081221 64 63 0.0 2.0 0.00 0.00 0.00 73 1026.8
20260831080944 64 63 0.0 0.0 0.00 0.00 0.00 73 1026.7
20260831080211 64 63 0.0 0.0 0.00 0.00 0.00 71 1026.7
20260831075705 64 63 0.0 0.0 0.00 0.00 0.00 71 1026.7
20260831075135 65 63 0.0 0.0 0.00 0.00 0.00 70 1026.7
20260831074625 65 63 0.0 2.0 0.00 0.00 0.00 69 1026.7
20260831074119 65 63 0.0 2.0 0.00 0.00 0.00 67 1026.8
20260831073613 66 61 0.0 2.0 0.00 0.00 0.00 67 1026.7
20260831073104 66 61 0.0 4.0 0.00 0.00 0.00 65 1026.6
20260831072557 67 61 0.0 5.0 0.00 0.00 0.00 64 1026.7
20260831072315 67 61 0.0 5.0 0.00 0.00 0.00 63 1026.6
20260831071541 67 61 0.0 4.0 0.00 0.00 0.00 63 1026.6
20260831071030 68 60 0.0 4.0 0.00 0.00 0.00 62 1026.4
20260831070748 68 61 0.0 2.0 0.00 0.00 0.00 63 1026.3
20260831070233 68 61 1.0 4.0 0.00 0.00 0.00 63 1026.3
20260831065505 69 60 1.0 4.0 0.00 0.00 0.00 64 1026.3
20260831065214 69 39 1.0 4.0 0.00 0.00 0.00 65 1026.4
20260831064708 69 351 0.0 3.0 0.00 0.00 0.00 65 1026.3
20260831063936 70 355 1.0 4.0 0.00 0.00 0.00 65 1026.2
20260831063425 70 42 1.0 6.0 0.00 0.00 0.00 65 1026.2
20260831062909 70 42 2.0 6.0 0.00 0.00 0.00 65 1026.1
20260831062352 71 50 1.0 6.0 0.00 0.00 0.00 64 1026.1
20260831061840 71 50 2.0 7.0 0.00 0.00 0.00 64 1026.0
20260831061324 71 48 2.0 7.0 0.00 0.00 0.00 64 1026.0
20260831061033 71 59 2.0 8.0 0.00 0.00 0.00 64 1026.0
20260831060256 71 121 2.0 8.0 0.00 0.00 0.00 63 1026.0
20260831055748 71 107 2.0 7.0 0.00 0.00 0.00 63 1026.0
20260831055232 71 142 2.0 7.0 0.00 0.00 0.00 63 1026.0
20260831054943 72 102 1.0 6.0 0.00 0.00 0.00 63 1026.0
20260831054215 72 71 2.0 6.0 0.00 0.00 0.00 63 1026.0
20260831053934 72 74 2.0 8.0 0.00 0.00 0.00 62 1026.0
20260831053205 72 89 2.0 8.0 0.00 0.00 0.00 61 1026.0
20260831052704 72 51 2.0 7.0 0.00 0.00 0.00 61 1026.0
20260831052420 73 26 2.0 6.0 0.00 0.00 0.00 61 1026.2
20260831051702 73 41 2.0 7.0 0.00 0.00 0.00 60 1026.2
20260831051156 73 35 2.0 7.0 0.00 0.00 0.00 59 1026.2
20260831051148 73 54 2.0 8.0 0.00 0.00 0.00 58 1026.3
20260831050415 74 70 3.0 8.0 0.00 0.00 0.00 57 1026.3
20260831045644 74 23 2.0 7.0 0.00 0.00 0.00 55 1026.3
20260831045136 74 51 2.0 6.0 0.00 0.00 0.00 56 1026.2
20260831044625 74 56 2.0 5.0 0.00 0.00 0.00 55 1026.3
20260831044119 74 54 2.0 7.0 0.00 0.00 0.00 55 1026.3
20260831043612 74 49 2.0 7.0 0.00 0.00 0.00 53 1026.4
20260831043103 74 96 2.0 8.0 0.00 0.00 0.00 54 1026.4
20260831042824 74 57 1.0 8.0 0.00 0.00 0.00 52 1026.4
20260831042047 75 106 1.0 4.0 0.00 0.00 0.00 50 1026.4
20260831041540 75 106 1.0 4.0 0.00 0.00 0.00 47 1026.4
20260831041031 75 109 1.0 5.0 0.00 0.00 0.00 48 1026.4
20260831040750 74 109 1.0 5.0 0.00 0.00 0.00 48 1026.6
20260831040009 74 111 1.0 4.0 0.00 0.00 0.00 47 1026.6
20260831035504 74 111 1.0 4.0 0.00 0.00 0.00 48 1026.7
20260831035232 74 126 1.0 4.0 0.00 0.00 0.00 48 1026.7
20260831034502 74 126 0.0 2.0 0.00 0.00 0.00 49 1026.7
20260831034003 74 126 0.0 6.0 0.00 0.00 0.00 46 1026.8
20260831033505 75 126 0.0 6.0 0.00 0.00 0.00 47 1026.9
20260831033004 75 124 0.0 2.0 0.00 0.00 0.00 50 1027.0
20260831032505 74 124 0.0 0.0 0.00 0.00 0.00 49 1027.0
20260831031958 74 124 0.0 5.0 0.00 0.00 0.00 48 1027.2
20260831031453 74 124 1.0 8.0 0.00 0.00 0.00 47 1027.3
20260831030953 74 161 1.0 8.0 0.00 0.00 0.00 50 1027.3
20260831030448 74 66 0.0 2.0 0.00 0.00 0.00 48 1027.3
20260831025945 74 69 0.0 2.0 0.00 0.00 0.00 48 1027.4
20260831025707 74 69 0.0 4.0 0.00 0.00 0.00 48 1027.4
20260831024937 74 69 1.0 4.0 0.00 0.00 0.00 50 1027.5
20260831024909 74 69 0.0 4.0 0.00 0.00 0.00 50 1027.6
20260831023920 74 70 0.0 5.0 0.00 0.00 0.00 49 1027.7
20260831023413 73 70 1.0 5.0 0.00 0.00 0.00 50 1027.7
20260831022908 73 121 0.0 5.0 0.00 0.00 0.00 51 1027.7
20260831022410 74 121 0.0 2.0 0.00 0.00 0.00 52 1027.9
20260831021904 73 121 0.0 1.0 0.00 0.00 0.00 55 1027.9
20260831021623 72 121 0.0 1.0 0.00 0.00 0.00 53 1028.0
20260831020852 72 121 0.0 2.0 0.00 0.00 0.00 54 1028.2
20260831020342 72 122 0.0 2.0 0.00 0.00 0.00 55 1028.2
20260831020055 71 121 0.0 2.0 0.00 0.00 0.00 56 1028.3
20260831015322 71 122 1.0 4.0 0.00 0.00 0.00 58 1028.4
20260831014812 71 122 1.0 4.0 0.00 0.00 0.00 57 1028.5
20260831014304 71 122 1.0 2.0 0.00 0.00 0.00 56 1028.6
20260831013802 71 122 0.0 2.0 0.00 0.00 0.00 57 1028.8
20260831013302 71 122 0.0 2.0 0.00 0.00 0.00 59 1028.9
20260831012759 69 122 0.0 1.0 0.00 0.00 0.00 60 1028.9
20260831012242 68 122 0.0 0.0 0.00 0.00 0.00 60 1029.1
20260831011742 69 122 0.0 2.0 0.00 0.00 0.00 63 1029.1
20260831011222 69 122 0.0 2.0 0.00 0.00 0.00 62 1029.2
20260831010722 68 122 0.0 2.0 0.00 0.00 0.00 63 1029.2
20260831010706 68 21 0.0 2.0 0.00 0.00 0.00 61 1029.2
20260831005712 68 21 0.0 1.0 0.00 0.00 0.00 62 1029.3
20260831005158 68 21 0.0 2.0 0.00 0.00 0.00 63 1029.4
20260831004652 67 22 0.0 2.0 0.00 0.00 0.00 64 1029.4
20260831004149 68 21 0.0 4.0 0.00 0.00 0.00 65 1029.4
20260831003633 67 21 0.0 4.0 0.00 0.00 0.00 63 1029.5
20260831003133 67 21 0.0 0.0 0.00 0.00 0.00 66 1029.5
20260831002632 67 21 0.0 0.0 0.00 0.00 0.00 66 1029.5
20260831002120 66 21 0.0 0.0 0.00 0.00 0.00 66 1029.4
20260831001612 67 21 0.0 0.0 0.00 0.00 0.00 66 1029.5
20260831001101 66 21 0.0 0.0 0.00 0.00 0.00 68 1029.4
20260831000556 66 22 0.0 0.0 0.00 0.00 0.00 68 1029.4
20260831000050 65 22 0.0 0.0 0.00 0.00 0.00 68 1029.3
20260830235551 64 22 0.0 0.0 0.00 0.00 0.00 68 1029.3
20260830235044 64 21 0.0 0.0 0.00 0.00 0.00 72 1029.4
20260830234536 63 22 0.0 0.0 0.00 0.00 0.00 73 1029.3
20260830234034 63 22 0.0 0.0 0.00 0.00 0.00 72 1029.4
20260830233522 62 22 0.0 0.0 0.00 0.00 0.00 73 1029.4
20260830233008 61 22 0.0 0.0 0.00 0.00 0.00 72 1029.4
20260830232456 62 22 0.0 0.0 0.00 0.00 0.00 74 1029.4
20260830231954 61 22 0.0 0.0 0.00 0.00 0.00 75 1029.4
20260830231454 61 22 0.0 3.0 0.00 0.00 0.00 75 1029.4
20260830230953 60 22 0.0 3.0 0.00 0.00 0.00 76 1029.4
20260830230450 60 21 0.0 0.0 0.00 0.00 0.00 75 1029.4
20260830225942 60 21 0.0 0.0 0.00 0.00 0.00 78 1029.4
20260830225441 60 21 0.0 0.0 0.00 0.00 0.00 78 1029.5
20260830224928 59 21 0.0 0.0 0.00 0.00 0.00 76 1029.5
20260830224427 59 21 0.0 0.0 0.00 0.00 0.00 79 1029.5
20260830223926 59 21 0.0 0.0 0.00 0.00 0.00 79 1029.4
20260830223720 58 21 0.0 0.0 0.00 0.00 0.00 79 1029.4
20260830223617 58 21 0.0 0.0 0.00 0.00 0.00 81 1029.4
20260830222359 58 21 0.0 0.0 0.00 0.00 0.00 81 1029.3
20260830221844 57 21 0.0 0.0 0.00 0.00 0.00 82 1029.3
20260830221335 57 21 0.0 0.0 0.00 0.00 0.00 83 1029.4
20260830220830 57 21 0.0 0.0 0.00 0.00 0.00 84 1029.4
20260830220315 56 22 0.0 0.0 0.00 0.00 0.00 84 1029.4
20260830215811 56 21 0.0 0.0 0.00 0.00 0.00 87 1029.2
20260830215305 55 21 0.0 0.0 0.00 0.00 0.00 89 1029.2
20260830214806 55 21 0.0 0.0 0.00 0.00 0.00 91 1029.0
20260830214517 54 21 0.0 0.0 0.00 0.00 0.00 92 1028.9
20260830213754 53 21 0.0 0.0 0.00 0.00 0.00 94 1028.9
20260830213509 52 21 0.0 0.0 0.00 0.00 0.00 94 1028.9
20260830212733 52 21 0.0 0.0 0.00 0.00 0.00 95 1028.8
20260830212441 51 21 0.0 0.0 0.00 0.00 0.00 96 1028.7
20260830211925 50 21 0.0 0.0 0.00 0.00 0.00 96 1028.7
20260830211429 49 21 0.0 0.0 0.00 0.00 0.00 96 1028.7
20260830210659 49 21 0.0 0.0 0.00 0.00 0.00 96 1028.7
20260830210154 48 21 0.0 0.0 0.00 0.00 0.00 96 1028.7
20260830205855 47 21 0.0 0.0 0.00 0.00 0.00 96 1028.5
20260830205119 47 21 0.0 0.0 0.00 0.00 0.00 95 1028.4
20260830204838 47 21 0.0 0.0 0.00 0.00 0.00 95 1028.3
20260830204318 47 21 0.0 0.0 0.00 0.00 0.00 95 1028.1
20260830203550 47 21 0.0 0.0 0.00 0.00 0.00 96 1028.1
20260830203043 47 21 0.0 0.0 0.00 0.00 0.00 95 1028.2
20260830202736 47 21 0.0 0.0 0.00 0.00 0.00 95 1028.0
20260830202619 47 21 0.0 0.0 0.00 0.00 0.00 95 1028.2
20260830201521 46 21 0.0 0.0 0.00 0.00 0.00 95 1028.0
20260830201012 46 21 0.0 0.0 0.00 0.00 0.00 95 1028.0
20260830200503 46 21 0.0 0.0 0.00 0.00 0.00 95 1028.1
20260830200000 46 21 0.0 0.0 0.00 0.00 0.00 95 1028.0
20260830195459 46 21 0.0 0.0 0.00 0.00 0.00 95 1028.0
20260830195224 46 21 0.0 0.0 0.00 0.00 0.00 95 1027.9
20260830194459 46 21 0.0 0.0 0.00 0.00 0.00 95 1027.9
20260830193940 47 21 0.0 0.0 0.00 0.00 0.00 95 1027.9
20260830193423 47 21 0.0 0.0 0.00 0.00 0.00 95 1027.9
20260830192907 47 21 0.0 0.0 0.00 0.00 0.00 95 1027.7
20260830192627 47 21 0.0 0.0 0.00 0.00 0.00 95 1027.7
20260830191854 47 21 0.0 0.0 0.00 0.00 0.00 95 1027.7
20260830191345 47 21 0.0 0.0 0.00 0.00 0.00 95 1027.6
20260830190831 48 21 0.0 0.0 0.00 0.00 0.00 95 1027.6
20260830190333 48 21 0.0 0.0 0.00 0.00 0.00 95 1027.6
20260830190006 48 21 0.0 0.0 0.00 0.00 0.00 95 1027.4
20260830185850 48 21 0.0 0.0 0.00 0.00 0.00 95 1027.4
20260830184729 48 21 0.0 0.0 0.00 0.00 0.00 95 1027.5
20260830184221 48 21 0.0 0.0 0.00 0.00 0.00 95 1027.5
20260830183920 48 21 0.0 0.0 0.00 0.00 0.00 95 1027.5
20260830183140 48 21 0.0 0.0 0.00 0.00 0.00 95 1027.5
20260830182637 48 21 0.0 0.0 0.00 0.00 0.00 95 1027.5
20260830182103 48 21 0.0 0.0 0.00 0.00 0.00 95 1027.5
20260830181601 48 21 0.0 0.0 0.00 0.00 0.00 95 1027.7
20260830181059 48 21 0.0 0.0 0.00 0.00 0.00 95 1027.8
20260830180529 49 21 0.0 0.0 0.00 0.00 0.00 95 1027.8
20260830180013 49 21 0.0 0.0 0.00 0.00 0.00 95 1027.8
20260830175506 49 21 0.0 0.0 0.00 0.00 0.00 95 1027.8
20260830175002 49 21 0.0 0.0 0.00 0.00 0.00 95 1027.7
20260830174452 49 21 0.0 0.0 0.00 0.00 0.00 95 1027.7
20260830173952 48 21 0.0 0.0 0.00 0.00 0.00 95 1027.8
20260830173437 49 21 0.0 0.0 0.00 0.00 0.00 95 1027.8
20260830172937 49 21 0.0 0.0 0.00 0.00 0.00 95 1027.8
20260830172436 49 21 0.0 0.0 0.00 0.00 0.00 95 1027.8
20260830172130 49 21 0.0 0.0 0.00 0.00 0.00 95 1027.8
20260830171356 48 21 0.0 0.0 0.00 0.00 0.00 95 1027.8
20260830170844 48 21 0.0 0.0 0.00 0.00 0.00 94 1027.9
20260830170538 49 21 0.0 0.0 0.00 0.00 0.00 94 1028.0
20260830165809 49 21 0.0 0.0 0.00 0.00 0.00 95 1028.1
20260830165305 49 21 0.0 0.0 0.00 0.00 0.00 94 1028.1
20260830164749 49 21 0.0 0.0 0.00 0.00 0.00 95 1028.1
20260830164234 49 21 0.0 0.0 0.00 0.00 0.00 94 1028.0
20260830163926 49 21 0.0 0.0 0.00 0.00 0.00 95 1028.0
20260830163201 49 21 0.0 0.0 0.00 0.00 0.00 94 1027.9
20260830162653 49 21 0.0 0.0 0.00 0.00 0.00 94 1027.9
20260830162149 49 21 0.0 0.0 0.00 0.00 0.00 95 1027.9
20260830161637 49 21 0.0 0.0 0.00 0.00 0.00 95 1028.0
20260830161126 49 21 0.0 0.0 0.00 0.00 0.00 95 1028.0
20260830160852 49 21 0.0 0.0 0.00 0.00 0.00 95 1028.0
20260830160121 49 21 0.0 0.0 0.00 0.00 0.00 94 1028.0
20260830155603 49 21 0.0 0.0 0.00 0.00 0.00 94 1028.0
20260830155307 49 21 0.0 0.0 0.00 0.00 0.00 94 1028.1
20260830154500 49 21 0.0 0.0 0.00 0.00 0.00 94 1028.0
20260830153934 49 21 0.0 0.0 0.00 0.00 0.00 94 1028.1
20260830153425 49 21 0.0 0.0 0.00 0.00 0.00 94 1028.2
20260830153131 49 21 0.0 0.0 0.00 0.00 0.00 94 1028.2
20260830152402 49 21 0.0 0.0 0.00 0.00 0.00 94 1028.1
20260830151902 49 21 0.0 0.0 0.00 0.00 0.00 93 1028.1
20260830151357 49 21 0.0 0.0 0.00 0.00 0.00 93 1028.1
20260830151115 49 21 0.0 0.0 0.00 0.00 0.00 93 1028.1
20260830150344 49 21 0.0 0.0 0.00 0.00 0.00 93 1028.1
20260830145840 49 21 0.0 0.0 0.00 0.00 0.00 93 1028.2
20260830145324 49 21 0.0 0.0 0.00 0.00 0.00 93 1028.3
20260830144808 50 21 0.0 0.0 0.00 0.00 0.00 93 1028.3
20260830144455 49 21 0.0 0.0 0.00 0.00 0.00 93 1028.4
20260830143706 49 21 0.0 0.0 0.00 0.00 0.00 93 1028.3
20260830143418 50 21 0.0 0.0 0.00 0.00 0.00 93 1028.4
20260830142640 50 21 0.0 0.0 0.00 0.00 0.00 93 1028.4
20260830142134 50 21 0.0 0.0 0.00 0.00 0.00 93 1028.4
20260830141605 50 21 0.0 0.0 0.00 0.00 0.00 93 1028.5
20260830141101 50 21 0.0 0.0 0.00 0.00 0.00 92 1028.5
20260830140600 50 21 0.0 0.0 0.00 0.00 0.00 92 1028.4
20260830140320 50 21 0.0 0.0 0.00 0.00 0.00 92 1028.4
20260830135544 50 21 0.0 0.0 0.00 0.00 0.00 92 1028.4
20260830135034 51 21 0.0 0.0 0.00 0.00 0.00 92 1028.3
20260830134518 51 21 0.0 0.0 0.00 0.00 0.00 92 1028.4
20260830134506 51 21 0.0 0.0 0.00 0.00 0.00 91 1028.5
20260830133509 51 21 0.0 0.0 0.00 0.00 0.00 92 1028.5
20260830133004 51 21 0.0 0.0 0.00 0.00 0.00 91 1028.5
20260830132458 51 21 0.0 0.0 0.00 0.00 0.00 91 1028.5